Regional Weather Roundup
Issued by NWS Newport/Morehead, NC

Current Version | Previous Version | Graphics & Text | Print | Product List | Glossary On
Versions: 1 2 3 4 5 6 7 8 9 10 11 12 13 14 15 16 17 18 19 20 21 22 23 24 25 26 27 28 29 30 31 32 33 34 35 36 37 38 39 40 41 42 43 44 45 46 47 48 49 50
000 ASUS42 KMHX 292310 RWRMHX WEATHER ROUNDUP FOR EASTERN NORTH CAROLINA NATIONAL WEATHER SERVICE NEWPORT/MOREHEAD CITY NC 600 PM EST THU JAN 29 2015 NOTE: "FAIR" INDICATES FEW OR NO CLOUDS BELOW 12,000 FEET WITH NO SIGNIFICANT WEATHER AND/OR OBSTRUCTIONS TO VISIBILITY NCZ015>017-031-032-045>047-102-103-300000- NORTH COAST CITY SKY/WX TMP DP RH WIND PRES REMARKS EDENTON MOCLDY 42 27 54 S8 30.17F ELIZABETH CITY CLOUDY 38 22 52 SE6 30.17F KITTY HAWK CLOUDY 37 27 67 S3 30.17F MANTEO CLOUDY 39 28 65 S10 30.19F $$ NCZ045>047-081-094-103-104-300000- CENTRAL COAST CITY SKY/WX TMP DP RH WIND PRES REMARKS FRISCO MOCLDY 37 25 61 W3 30.24R SWANQUARTER NOT AVBL $$ NCZ095-097-098-100-101-300000- SOUTHERN COAST CITY SKY/WX TMP DP RH WIND PRES REMARKS BEAUFORT MOCLDY 41 27 57 S5 30.23F CEDAR ISLAND NOT AVBL JACKSONVILLE PTCLDY 42 26 53 S7 30.19F PINEY ISLAND N/A N/A N/A N/A MISG 30.22F WILMINGTON PTCLDY 45 27 49 S8 30.20F $$ NCZ011>013-027>030-043-044-078>080-089-090>093-098-300000- COASTAL PLAIN CITY SKY/WX TMP DP RH WIND PRES REMARKS AHOSKIE MOCLDY 40 19 42 SE6 30.13F CLINTON LGT RAIN 48 23 37 S5 30.16F ELIZABETHTOWN PTCLDY 49 21 34 S7 30.17F GOLDSBORO CLOUDY 46 21 36 CALM 30.13F GREENVILLE MOCLDY 45 19 36 S8 30.16F HAVELOCK PTCLDY 42 22 44 S7 30.22F KENANSVILLE MOCLDY 47 17 29 CALM 30.18F KINSTON MOCLDY 46 19 34 S6 30.17F NEW BERN PTCLDY 45 22 40 S8 30.20F RICHLANDS PTCLDY 45 21 39 S9 30.19F ROCKY MOUNT CLOUDY 44 22 41 S8 30.14F WASHINGTON PTCLDY 44 21 40 SE5 30.17F WHITEVILLE PTCLDY 48 29 47 SE6 30.17F $$ AMZ130-135-150-152-154-156-158-170-250-252-270-ANZ085-086-088-633-658-670-300000- MARINE OBSERVATIONS STATION/POSITION TIME TEMP WIND PRES WAVE SWELL AIR SEA DIR/SP/G HT/PER HT/PER (UTC) (F) (DEG/KT/KT) (MB) (FT/S) (FT/S) CHESAPEAKE LIGHT 2200 37 160/ 15/ 16 1021.6 64 E VA BEACH 2300 40 49 210/ 10/ 12 1021.5 3/ 7 3/ 7 DUCK 2300 37 44 160/ 9/ 10 1021.4 2 E DUCK 2300 42 N/A 3/12 2/12 10 NE DUCK 2300 45 N/A 3/ 8 2/12 OREGON INLET 2300 39 42 200/ 10/ 12 1023.1 13E OREGON INLT 2300 43 N/A 4/11 2/11 HATTERAS CG 2300 38 44 240/ 4/ 6 1024.1 DIAMOND BUOY 2300 44 70 280/ 8/ 10 1023.9 5/ 8 5/ 8 17 S OCRACOKE NOT AVBL CAPE LOOKOUT 2200 43 230/ 3/ 4 1023.8 BEAUFORT LAB 2300 44 46 190/ 6/ 7 1022.4 27 SE WRIGHTSVLE NOT AVBL 5 SE WRIGHTSVLE 2200 49 52 240/ 10/ 10 1023.5 225 S CAPE HAT 2151 57 72 350/ 4/ 6 1024.8 6/ 8 7/ 8 41 SE CHARLESTON 2300 58 68 190/ 10/ 14 1022.8 3/10 3/10 $$

USA.gov is the U.S. government's official web portal to all federal, state and local government web resources and services.